Year,Month,Day,Hour,Minute,Value (Times are PST for temperature in C)
2008,06,29,00,00,21.00
2008,06,29,00,01,20.90
2008,06,29,00,02,20.90
2008,06,29,00,03,20.80
2008,06,29,00,04,20.80
2008,06,29,00,05,20.70
2008,06,29,00,06,20.70
2008,06,29,00,07,20.60
2008,06,29,00,08,20.60
2008,06,29,00,09,20.50
2008,06,29,00,10,20.50
2008,06,29,00,11,20.40
2008,06,29,00,12,20.40
2008,06,29,00,13,20.40
2008,06,29,00,14,20.40
2008,06,29,00,15,20.40
2008,06,29,00,16,20.40
2008,06,29,00,17,20.40
2008,06,29,00,18,20.40
2008,06,29,00,19,20.40
2008,06,29,00,20,20.40
2008,06,29,00,21,20.30
2008,06,29,00,22,20.30
2008,06,29,00,23,20.30
2008,06,29,00,24,20.30
2008,06,29,00,25,20.20
2008,06,29,00,26,20.20
2008,06,29,00,27,20.20
2008,06,29,00,28,20.10
2008,06,29,00,29,20.10
2008,06,29,00,30,20.00
2008,06,29,00,31,19.90
2008,06,29,00,32,19.90
2008,06,29,00,33,19.90
2008,06,29,00,34,19.90
2008,06,29,00,35,19.90
2008,06,29,00,36,19.90
2008,06,29,00,37,19.90
2008,06,29,00,38,19.90
2008,06,29,00,39,19.90
2008,06,29,00,40,19.90
2008,06,29,00,41,19.90
2008,06,29,00,42,20.00
2008,06,29,00,43,20.10
2008,06,29,00,44,20.10
2008,06,29,00,45,20.10
2008,06,29,00,46,20.20
2008,06,29,00,47,20.20
2008,06,29,00,48,20.20
2008,06,29,00,49,20.20
2008,06,29,00,50,20.20
2008,06,29,00,51,20.20
2008,06,29,00,52,20.20
2008,06,29,00,53,20.20
2008,06,29,00,54,20.20
2008,06,29,00,55,20.20
2008,06,29,00,56,20.20
2008,06,29,00,57,20.20
2008,06,29,00,58,20.20
2008,06,29,00,59,20.20
2008,06,29,01,00,20.20
2008,06,29,01,01,20.20
2008,06,29,01,02,20.20
2008,06,29,01,03,20.20
2008,06,29,01,04,20.20
2008,06,29,01,05,20.20
2008,06,29,01,06,20.10
2008,06,29,01,07,20.10
2008,06,29,01,08,20.00
2008,06,29,01,09,19.90
2008,06,29,01,10,19.90
2008,06,29,01,11,19.90
2008,06,29,01,12,19.90
2008,06,29,01,13,19.90
2008,06,29,01,14,19.90
2008,06,29,01,15,19.80
2008,06,29,01,16,19.80
2008,06,29,01,17,19.80
2008,06,29,01,18,19.80
2008,06,29,01,19,19.80
2008,06,29,01,20,19.80
2008,06,29,01,21,19.80
2008,06,29,01,22,19.80
2008,06,29,01,23,19.80
2008,06,29,01,24,19.90
2008,06,29,01,25,19.90
2008,06,29,01,26,19.90
2008,06,29,01,27,19.90
2008,06,29,01,28,19.90
2008,06,29,01,29,19.90
2008,06,29,01,30,20.00
2008,06,29,01,31,20.10
2008,06,29,01,32,20.10
2008,06,29,01,33,20.10
2008,06,29,01,34,20.10
2008,06,29,01,35,20.10
2008,06,29,01,36,20.10
2008,06,29,01,37,19.90
2008,06,29,01,38,19.90
2008,06,29,01,39,19.90
2008,06,29,01,40,19.90
2008,06,29,01,41,19.90
2008,06,29,01,42,19.90
2008,06,29,01,43,19.90
2008,06,29,01,44,19.90
2008,06,29,01,45,20.10
2008,06,29,01,46,20.10
2008,06,29,01,47,20.20
2008,06,29,01,48,20.20
2008,06,29,01,49,20.20
2008,06,29,01,50,20.20
2008,06,29,01,51,20.20
2008,06,29,01,52,20.10
2008,06,29,01,53,20.10
2008,06,29,01,54,20.10
2008,06,29,01,55,20.10
2008,06,29,01,56,20.10
2008,06,29,01,57,20.10
2008,06,29,01,58,20.20
2008,06,29,01,59,20.20
2008,06,29,02,00,20.20
2008,06,29,02,01,20.20
2008,06,29,02,02,20.20
2008,06,29,02,03,20.20
2008,06,29,02,04,20.20
2008,06,29,02,05,20.20
2008,06,29,02,06,20.20
2008,06,29,02,07,20.20
2008,06,29,02,08,20.20
2008,06,29,02,09,20.20
2008,06,29,02,10,20.20
2008,06,29,02,11,20.20
2008,06,29,02,12,20.20
2008,06,29,02,13,20.20
2008,06,29,02,14,20.20
2008,06,29,02,15,20.20
2008,06,29,02,16,20.20
2008,06,29,02,17,20.20
2008,06,29,02,18,20.20
2008,06,29,02,19,20.20
2008,06,29,02,20,20.20
2008,06,29,02,21,20.20
2008,06,29,02,22,20.20
2008,06,29,02,23,20.20
2008,06,29,02,24,20.20
2008,06,29,02,25,20.20
2008,06,29,02,26,20.10
2008,06,29,02,27,20.10
2008,06,29,02,28,20.00
2008,06,29,02,29,19.90
2008,06,29,02,30,19.90
2008,06,29,02,31,19.90
2008,06,29,02,32,19.90
2008,06,29,02,33,19.90
2008,06,29,02,34,19.90
2008,06,29,02,35,19.90
2008,06,29,02,36,19.90
2008,06,29,02,37,19.90
2008,06,29,02,38,19.80
2008,06,29,02,39,19.90
2008,06,29,02,40,19.90
2008,06,29,02,41,19.90
2008,06,29,02,42,19.90
2008,06,29,02,43,19.90
2008,06,29,02,44,19.90
2008,06,29,02,45,19.90
2008,06,29,02,46,19.90
2008,06,29,02,47,19.90
2008,06,29,02,48,19.90
2008,06,29,02,49,19.90
2008,06,29,02,50,19.80
2008,06,29,02,51,19.80
2008,06,29,02,52,19.80
2008,06,29,02,53,19.80
2008,06,29,02,54,19.80
2008,06,29,02,55,19.70
2008,06,29,02,56,19.70
2008,06,29,02,57,19.70
2008,06,29,02,58,19.70
2008,06,29,02,59,19.70
2008,06,29,03,00,19.70
2008,06,29,03,01,19.70
2008,06,29,03,02,19.70
2008,06,29,03,03,19.70
2008,06,29,03,04,19.60
2008,06,29,03,05,19.60
2008,06,29,03,06,19.60
2008,06,29,03,07,19.60
2008,06,29,03,08,19.60
2008,06,29,03,09,19.60
2008,06,29,03,10,19.60
2008,06,29,03,11,19.60
2008,06,29,03,12,19.60
2008,06,29,03,13,19.60
2008,06,29,03,14,19.60
2008,06,29,03,15,19.60
2008,06,29,03,16,19.60
2008,06,29,03,17,19.60
2008,06,29,03,18,19.60
2008,06,29,03,19,19.60
2008,06,29,03,20,19.50
2008,06,29,03,21,19.50
2008,06,29,03,22,19.50
2008,06,29,03,23,19.50
2008,06,29,03,24,19.50
2008,06,29,03,25,19.40
2008,06,29,03,26,19.40
2008,06,29,03,27,19.40
2008,06,29,03,28,19.30
2008,06,29,03,29,19.30
2008,06,29,03,30,19.20
2008,06,29,03,31,19.20
2008,06,29,03,32,19.20
2008,06,29,03,33,19.10
2008,06,29,03,34,19.10
2008,06,29,03,35,19.10
2008,06,29,03,36,19.10
2008,06,29,03,37,18.90
2008,06,29,03,38,18.90
2008,06,29,03,39,18.90
2008,06,29,03,40,18.90
2008,06,29,03,41,18.90
2008,06,29,03,42,18.90
2008,06,29,03,43,18.90
2008,06,29,03,44,18.90
2008,06,29,03,45,18.90
2008,06,29,03,46,18.90
2008,06,29,03,47,18.90
2008,06,29,03,48,18.90
2008,06,29,03,49,18.90
2008,06,29,03,50,18.90
2008,06,29,03,51,18.90
2008,06,29,03,52,18.90
2008,06,29,03,53,18.90
2008,06,29,03,54,18.90
2008,06,29,03,55,18.90
2008,06,29,03,56,18.90
2008,06,29,03,57,18.90
2008,06,29,03,58,18.90
2008,06,29,03,59,18.90
2008,06,29,04,00,18.90
2008,06,29,04,01,18.90
2008,06,29,04,02,18.90
2008,06,29,04,03,18.90
2008,06,29,04,04,18.90
2008,06,29,04,05,18.90
2008,06,29,04,06,18.80
2008,06,29,04,07,18.80
2008,06,29,04,08,18.80
2008,06,29,04,09,18.80
2008,06,29,04,10,18.70
2008,06,29,04,11,18.70
2008,06,29,04,12,18.70
2008,06,29,04,13,18.70
2008,06,29,04,14,18.70
2008,06,29,04,15,18.70
2008,06,29,04,16,18.60
2008,06,29,04,17,18.60
2008,06,29,04,18,18.60
2008,06,29,04,19,18.60
2008,06,29,04,20,18.60
2008,06,29,04,21,18.60
2008,06,29,04,22,18.60
2008,06,29,04,23,18.60
2008,06,29,04,24,18.60
2008,06,29,04,25,18.60
2008,06,29,04,26,18.60
2008,06,29,04,27,18.60
2008,06,29,04,28,18.60
2008,06,29,04,29,18.60
2008,06,29,04,30,18.60
2008,06,29,04,31,18.60
2008,06,29,04,32,18.60
2008,06,29,04,33,18.60
2008,06,29,04,34,18.60
2008,06,29,04,35,18.60
2008,06,29,04,36,18.60
2008,06,29,04,37,18.60
2008,06,29,04,38,18.60
2008,06,29,04,39,18.60
2008,06,29,04,40,18.60
2008,06,29,04,41,18.60
2008,06,29,04,42,18.60
2008,06,29,04,43,18.60
2008,06,29,04,44,18.60
2008,06,29,04,45,18.70
2008,06,29,04,46,18.70
2008,06,29,04,47,18.70
2008,06,29,04,48,18.70
2008,06,29,04,49,18.70
2008,06,29,04,50,18.60
2008,06,29,04,51,18.60
2008,06,29,04,52,18.70
2008,06,29,04,53,18.70
2008,06,29,04,54,18.70
2008,06,29,04,55,18.70
2008,06,29,04,56,18.70
2008,06,29,04,57,18.70
2008,06,29,04,58,18.70
2008,06,29,04,59,18.70
2008,06,29,05,00,18.70
2008,06,29,05,01,18.70
2008,06,29,05,02,18.60
2008,06,29,05,03,18.60
2008,06,29,05,04,18.60
2008,06,29,05,05,18.50
2008,06,29,05,06,18.50
2008,06,29,05,07,18.50
2008,06,29,05,08,18.50
2008,06,29,05,09,18.50
2008,06,29,05,10,18.50
2008,06,29,05,11,18.40
2008,06,29,05,12,18.40
2008,06,29,05,13,18.40
2008,06,29,05,14,18.40
2008,06,29,05,15,18.40
2008,06,29,05,16,18.40
2008,06,29,05,17,18.40
2008,06,29,05,18,18.40
2008,06,29,05,19,18.40
2008,06,29,05,20,18.40
2008,06,29,05,21,18.30
2008,06,29,05,22,18.30
2008,06,29,05,23,18.30
2008,06,29,05,24,18.30
2008,06,29,05,25,18.30
2008,06,29,05,26,18.30
2008,06,29,05,27,18.30
2008,06,29,05,28,18.30
2008,06,29,05,29,18.20
2008,06,29,05,30,18.20
2008,06,29,05,31,18.20
2008,06,29,05,32,18.20
2008,06,29,05,33,18.20
2008,06,29,05,34,18.20
2008,06,29,05,35,18.20
2008,06,29,05,36,18.20
2008,06,29,05,37,18.20
2008,06,29,05,38,18.20
2008,06,29,05,39,18.10
2008,06,29,05,40,18.10
2008,06,29,05,41,18.10
2008,06,29,05,42,18.10
2008,06,29,05,43,18.10
2008,06,29,05,44,18.10
2008,06,29,05,45,18.00
2008,06,29,05,46,17.90
2008,06,29,05,47,17.90
2008,06,29,05,48,17.90
2008,06,29,05,49,17.90
2008,06,29,05,50,17.90
2008,06,29,05,51,17.90
2008,06,29,05,52,17.90
2008,06,29,05,53,17.90
2008,06,29,05,54,17.80
2008,06,29,05,55,17.80
2008,06,29,05,56,17.80
2008,06,29,05,57,17.80
2008,06,29,05,58,17.80
2008,06,29,05,59,17.80
2008,06,29,06,00,17.80
2008,06,29,06,01,17.80
2008,06,29,06,02,17.80
2008,06,29,06,03,17.80
2008,06,29,06,04,17.80
2008,06,29,06,05,17.80
2008,06,29,06,06,17.80
2008,06,29,06,07,17.80
2008,06,29,06,08,17.80
2008,06,29,06,09,17.80
2008,06,29,06,10,17.80
2008,06,29,06,11,17.80
2008,06,29,06,12,17.80
2008,06,29,06,13,17.80
2008,06,29,06,14,17.80
2008,06,29,06,15,17.80
2008,06,29,06,16,17.80
2008,06,29,06,17,17.80
2008,06,29,06,18,17.70
2008,06,29,06,19,17.70
2008,06,29,06,20,17.70
2008,06,29,06,21,17.70
2008,06,29,06,22,17.70
2008,06,29,06,23,17.70
2008,06,29,06,24,17.70
2008,06,29,06,25,17.70
2008,06,29,06,26,17.70
2008,06,29,06,27,17.80
2008,06,29,06,28,17.80
2008,06,29,06,29,17.80
2008,06,29,06,30,17.80
2008,06,29,06,31,17.80
2008,06,29,06,32,17.80
2008,06,29,06,33,17.80
2008,06,29,06,34,17.90
2008,06,29,06,35,17.90
2008,06,29,06,36,17.90
2008,06,29,06,37,17.90
2008,06,29,06,38,17.90
2008,06,29,06,39,17.90
2008,06,29,06,40,17.90
2008,06,29,06,41,17.90
2008,06,29,06,42,17.90
2008,06,29,06,43,17.90
2008,06,29,06,44,17.90
2008,06,29,06,45,17.90
2008,06,29,06,46,17.90
2008,06,29,06,47,17.90
2008,06,29,06,48,17.90
2008,06,29,06,49,17.90
2008,06,29,06,50,17.90
2008,06,29,06,51,17.90
2008,06,29,06,52,17.90
2008,06,29,06,53,18.10
2008,06,29,06,54,18.10
2008,06,29,06,55,18.10
2008,06,29,06,56,18.10
2008,06,29,06,57,18.10
2008,06,29,06,58,18.10
2008,06,29,06,59,18.10
2008,06,29,07,00,18.10
2008,06,29,07,01,18.10
2008,06,29,07,02,18.10
2008,06,29,07,03,18.10
2008,06,29,07,04,18.10
2008,06,29,07,05,18.10
2008,06,29,07,06,18.20
2008,06,29,07,07,18.20
2008,06,29,07,08,18.20
2008,06,29,07,09,18.20
2008,06,29,07,10,18.20
2008,06,29,07,11,18.20
2008,06,29,07,12,18.20
2008,06,29,07,13,18.20
2008,06,29,07,14,18.20
2008,06,29,07,15,18.20
2008,06,29,07,16,18.20
2008,06,29,07,17,18.30
2008,06,29,07,18,18.30
2008,06,29,07,19,18.30
2008,06,29,07,20,18.30
2008,06,29,07,21,18.40
2008,06,29,07,22,18.40
2008,06,29,07,23,18.40
2008,06,29,07,24,18.50
2008,06,29,07,25,18.50
2008,06,29,07,26,18.50
2008,06,29,07,27,18.50
2008,06,29,07,28,18.50
2008,06,29,07,29,18.60
2008,06,29,07,30,18.60
2008,06,29,07,31,18.60
2008,06,29,07,32,18.70
2008,06,29,07,33,18.70
2008,06,29,07,34,18.70
2008,06,29,07,35,18.80
2008,06,29,07,36,18.80
2008,06,29,07,37,18.80
2008,06,29,07,38,18.90
2008,06,29,07,39,18.90
2008,06,29,07,40,18.90
2008,06,29,07,41,19.00
2008,06,29,07,42,19.10
2008,06,29,07,43,19.10
2008,06,29,07,44,19.10
2008,06,29,07,45,19.20
2008,06,29,07,46,19.20
2008,06,29,07,47,19.30
2008,06,29,07,48,19.30
2008,06,29,07,49,19.30
2008,06,29,07,50,19.40
2008,06,29,07,51,19.40
2008,06,29,07,52,19.40
2008,06,29,07,53,19.50
2008,06,29,07,54,19.60
2008,06,29,07,55,19.60
2008,06,29,07,56,19.70
2008,06,29,07,57,19.70
2008,06,29,07,58,19.80
2008,06,29,07,59,19.90
2008,06,29,08,00,19.90
2008,06,29,08,01,19.90
2008,06,29,08,02,20.00
2008,06,29,08,03,20.10
2008,06,29,08,04,20.20
2008,06,29,08,05,20.20
2008,06,29,08,06,20.20
2008,06,29,08,07,20.20
2008,06,29,08,08,20.30
2008,06,29,08,09,20.40
2008,06,29,08,10,20.50
2008,06,29,08,11,20.50
2008,06,29,08,12,20.60
2008,06,29,08,13,20.70
2008,06,29,08,14,20.70
2008,06,29,08,15,20.80
2008,06,29,08,16,20.90
2008,06,29,08,17,21.00
2008,06,29,08,18,21.10
2008,06,29,08,19,21.10
2008,06,29,08,20,21.20
2008,06,29,08,21,21.30
2008,06,29,08,22,21.40
2008,06,29,08,23,21.50
2008,06,29,08,24,21.60
2008,06,29,08,25,21.60
2008,06,29,08,26,21.60
2008,06,29,08,27,21.70
2008,06,29,08,28,21.80
2008,06,29,08,29,21.80
2008,06,29,08,30,21.80
2008,06,29,08,31,21.90
2008,06,29,08,32,22.00
2008,06,29,08,33,22.00
2008,06,29,08,34,22.10
2008,06,29,08,35,22.10
2008,06,29,08,36,22.10
2008,06,29,08,37,22.20
2008,06,29,08,38,22.20
2008,06,29,08,39,22.30
2008,06,29,08,40,22.30
2008,06,29,08,41,22.30
2008,06,29,08,42,22.40
2008,06,29,08,43,22.40
2008,06,29,08,44,22.40
2008,06,29,08,45,22.50
2008,06,29,08,46,22.50
2008,06,29,08,47,22.50
2008,06,29,08,48,22.50
2008,06,29,08,49,22.50
2008,06,29,08,50,22.50
2008,06,29,08,51,22.60
2008,06,29,08,52,22.60
2008,06,29,08,53,22.60
2008,06,29,08,54,22.60
2008,06,29,08,55,22.60
2008,06,29,08,56,22.70
2008,06,29,08,57,22.70
2008,06,29,08,58,22.80
2008,06,29,08,59,22.80
2008,06,29,09,00,22.80
2008,06,29,09,01,22.90
2008,06,29,09,02,22.90
2008,06,29,09,03,22.90
2008,06,29,09,04,22.90
2008,06,29,09,05,23.10
2008,06,29,09,06,23.10
2008,06,29,09,07,23.10
2008,06,29,09,08,23.20
2008,06,29,09,09,23.20
2008,06,29,09,10,23.20
2008,06,29,09,11,23.30
2008,06,29,09,12,23.30
2008,06,29,09,13,23.30
2008,06,29,09,14,23.30
2008,06,29,09,15,23.30
2008,06,29,09,16,23.30
2008,06,29,09,17,23.30
2008,06,29,09,18,23.30
2008,06,29,09,19,23.30
2008,06,29,09,20,23.30
2008,06,29,09,21,23.30
2008,06,29,09,22,23.30
2008,06,29,09,23,23.30
2008,06,29,09,24,23.30
2008,06,29,09,25,23.30
2008,06,29,09,26,23.30
2008,06,29,09,27,23.30
2008,06,29,09,28,23.30
2008,06,29,09,29,23.30
2008,06,29,09,30,23.30
2008,06,29,09,31,23.30
2008,06,29,09,32,23.40
2008,06,29,09,33,23.40
2008,06,29,09,34,23.50
2008,06,29,09,35,23.60
2008,06,29,09,36,23.60
2008,06,29,09,37,23.70
2008,06,29,09,38,23.70
2008,06,29,09,39,23.70
2008,06,29,09,40,23.70
2008,06,29,09,41,23.70
2008,06,29,09,42,23.70
2008,06,29,09,43,23.70
2008,06,29,09,44,23.70
2008,06,29,09,45,23.70
2008,06,29,09,46,23.70
2008,06,29,09,47,23.70
2008,06,29,09,48,23.70
2008,06,29,09,49,23.80
2008,06,29,09,50,23.80
2008,06,29,09,51,23.90
2008,06,29,09,52,23.90
2008,06,29,09,53,23.90
2008,06,29,09,54,24.00
2008,06,29,09,55,24.10
2008,06,29,09,56,24.10
2008,06,29,09,57,24.20
2008,06,29,09,58,24.40
2008,06,29,09,59,24.40
2008,06,29,10,00,24.50
2008,06,29,10,01,24.50
2008,06,29,10,02,24.60
2008,06,29,10,03,24.70
2008,06,29,10,04,24.80
2008,06,29,10,05,24.80
2008,06,29,10,06,24.90
2008,06,29,10,07,25.00
2008,06,29,10,08,25.10
2008,06,29,10,09,25.20
2008,06,29,10,10,25.20
2008,06,29,10,11,25.30
2008,06,29,10,12,25.40
2008,06,29,10,13,25.50
2008,06,29,10,14,25.50
2008,06,29,10,15,25.60
2008,06,29,10,16,25.80
2008,06,29,10,17,25.80
2008,06,29,10,18,25.90
2008,06,29,10,19,26.00
2008,06,29,10,20,26.00
2008,06,29,10,21,26.00
2008,06,29,10,22,26.00
2008,06,29,10,23,26.00
2008,06,29,10,24,26.00
2008,06,29,10,25,26.00
2008,06,29,10,26,26.10
2008,06,29,10,27,26.10
2008,06,29,10,28,26.20
2008,06,29,10,29,26.30
2008,06,29,10,30,26.30
2008,06,29,10,31,26.30
2008,06,29,10,32,26.30
2008,06,29,10,33,26.40
2008,06,29,10,34,26.40
2008,06,29,10,35,26.40
2008,06,29,10,36,26.60
2008,06,29,10,37,26.60
2008,06,29,10,38,26.60
2008,06,29,10,39,26.60
2008,06,29,10,40,26.60
2008,06,29,10,41,26.60
2008,06,29,10,42,26.60
2008,06,29,10,43,26.40
2008,06,29,10,44,26.40
2008,06,29,10,45,26.30
2008,06,29,10,46,26.30
2008,06,29,10,47,26.30
2008,06,29,10,48,26.30
2008,06,29,10,49,26.50
2008,06,29,10,50,26.60
2008,06,29,10,51,26.70
2008,06,29,10,52,26.80
2008,06,29,10,53,26.90
2008,06,29,10,54,26.90
2008,06,29,10,55,26.90
2008,06,29,10,56,26.80
2008,06,29,10,57,26.80
2008,06,29,10,58,26.90
2008,06,29,10,59,26.90
2008,06,29,11,00,27.00
2008,06,29,11,01,27.10
2008,06,29,11,02,27.10
2008,06,29,11,03,26.90
2008,06,29,11,04,26.90
2008,06,29,11,05,26.80
2008,06,29,11,06,26.80
2008,06,29,11,07,26.80
2008,06,29,11,08,26.80
2008,06,29,11,09,26.90
2008,06,29,11,10,26.90
2008,06,29,11,11,26.90
2008,06,29,11,12,27.00
2008,06,29,11,13,27.10
2008,06,29,11,14,27.10
2008,06,29,11,15,27.10
2008,06,29,11,16,27.20
2008,06,29,11,17,27.20
2008,06,29,11,18,27.30
2008,06,29,11,19,27.30
2008,06,29,11,20,27.30
2008,06,29,11,21,27.30
2008,06,29,11,22,27.30
2008,06,29,11,23,27.30
2008,06,29,11,24,27.40
2008,06,29,11,25,27.50
2008,06,29,11,26,27.60
2008,06,29,11,27,27.60
2008,06,29,11,28,27.50
2008,06,29,11,29,27.40
2008,06,29,11,30,27.30
2008,06,29,11,31,27.30
2008,06,29,11,32,27.30
2008,06,29,11,33,27.30
2008,06,29,11,34,27.30
2008,06,29,11,35,27.40
2008,06,29,11,36,27.30
2008,06,29,11,37,27.30
2008,06,29,11,38,27.30
2008,06,29,11,39,27.30
2008,06,29,11,40,27.30
2008,06,29,11,41,27.30
2008,06,29,11,42,27.30
2008,06,29,11,43,27.30
2008,06,29,11,44,27.40
2008,06,29,11,45,27.50
2008,06,29,11,46,27.70
2008,06,29,11,47,27.70
2008,06,29,11,48,27.80
2008,06,29,11,49,27.90
2008,06,29,11,50,27.90
2008,06,29,11,51,27.90
2008,06,29,11,52,27.90
2008,06,29,11,53,27.90
2008,06,29,11,54,28.00
2008,06,29,11,55,27.90
2008,06,29,11,56,27.90
2008,06,29,11,57,27.80
2008,06,29,11,58,27.70
2008,06,29,11,59,27.60
2008,06,29,12,00,27.60
2008,06,29,12,01,27.60
2008,06,29,12,02,27.70
2008,06,29,12,03,27.70
2008,06,29,12,04,27.70
2008,06,29,12,05,27.70
2008,06,29,12,06,27.80
2008,06,29,12,07,27.80
2008,06,29,12,08,27.90
2008,06,29,12,09,28.00
2008,06,29,12,10,28.10
2008,06,29,12,11,28.20
2008,06,29,12,12,28.20
2008,06,29,12,13,28.40
2008,06,29,12,14,28.50
2008,06,29,12,15,28.60
2008,06,29,12,16,28.60
2008,06,29,12,17,28.50
2008,06,29,12,18,28.40
2008,06,29,12,19,28.40
2008,06,29,12,20,28.40
2008,06,29,12,21,28.40
2008,06,29,12,22,28.40
2008,06,29,12,23,28.50
2008,06,29,12,24,28.40
2008,06,29,12,25,28.30
2008,06,29,12,26,28.30
2008,06,29,12,27,28.30
2008,06,29,12,28,28.20
2008,06,29,12,29,28.20
2008,06,29,12,30,28.20
2008,06,29,12,31,28.20
2008,06,29,12,32,28.20
2008,06,29,12,33,28.30
2008,06,29,12,34,28.30
2008,06,29,12,35,28.20
2008,06,29,12,36,28.20
2008,06,29,12,37,28.20
2008,06,29,12,38,28.20
2008,06,29,12,39,28.30
2008,06,29,12,40,28.30
2008,06,29,12,41,28.20
2008,06,29,12,42,28.20
2008,06,29,12,43,28.30
2008,06,29,12,44,28.40
2008,06,29,12,45,28.40
2008,06,29,12,46,28.50
2008,06,29,12,47,28.60
2008,06,29,12,48,28.70
2008,06,29,12,49,28.70
2008,06,29,12,50,28.70
2008,06,29,12,51,28.70
2008,06,29,12,52,28.80
2008,06,29,12,53,28.80
2008,06,29,12,54,28.80
2008,06,29,12,55,28.80
2008,06,29,12,56,28.80
2008,06,29,12,57,28.80
2008,06,29,12,58,28.80
2008,06,29,12,59,28.90
2008,06,29,13,00,28.90
2008,06,29,13,01,28.90
2008,06,29,13,02,28.90
2008,06,29,13,03,28.90
2008,06,29,13,04,28.90
2008,06,29,13,05,28.90
2008,06,29,13,06,28.90
2008,06,29,13,07,29.00
2008,06,29,13,08,29.10
2008,06,29,13,09,28.90
2008,06,29,13,10,28.90
2008,06,29,13,11,28.90
2008,06,29,13,12,28.90
2008,06,29,13,13,28.90
2008,06,29,13,14,28.90
2008,06,29,13,15,28.90
2008,06,29,13,16,28.80
2008,06,29,13,17,28.80
2008,06,29,13,18,28.70
2008,06,29,13,19,28.70
2008,06,29,13,20,28.70
2008,06,29,13,21,28.70
2008,06,29,13,22,28.90
2008,06,29,13,23,28.90
2008,06,29,13,24,28.80
2008,06,29,13,25,28.70
2008,06,29,13,26,28.80
2008,06,29,13,27,28.80
2008,06,29,13,28,28.70
2008,06,29,13,29,28.70
2008,06,29,13,30,28.70
2008,06,29,13,31,28.70
2008,06,29,13,32,28.60
2008,06,29,13,33,28.60
2008,06,29,13,34,28.60
2008,06,29,13,35,28.60
2008,06,29,13,36,28.60
2008,06,29,13,37,28.70
2008,06,29,13,38,28.80
2008,06,29,13,39,28.80
2008,06,29,13,40,28.90
2008,06,29,13,41,28.90
2008,06,29,13,42,29.00
2008,06,29,13,43,29.10
2008,06,29,13,44,29.20
2008,06,29,13,45,29.30
2008,06,29,13,46,29.40
2008,06,29,13,47,29.50
2008,06,29,13,48,29.60
2008,06,29,13,49,29.70
2008,06,29,13,50,29.80
2008,06,29,13,51,29.70
2008,06,29,13,52,29.70
2008,06,29,13,53,29.70
2008,06,29,13,54,29.80
2008,06,29,13,55,29.80
2008,06,29,13,56,29.70
2008,06,29,13,57,29.70
2008,06,29,13,58,29.70
2008,06,29,13,59,29.70
2008,06,29,14,00,29.80
2008,06,29,14,01,29.90
2008,06,29,14,02,29.90
2008,06,29,14,03,29.70
2008,06,29,14,04,29.60
2008,06,29,14,05,29.50
2008,06,29,14,06,29.50
2008,06,29,14,07,29.50
2008,06,29,14,08,29.60
2008,06,29,14,09,29.60
2008,06,29,14,10,29.70
2008,06,29,14,11,29.70
2008,06,29,14,12,29.70
2008,06,29,14,13,29.80
2008,06,29,14,14,29.70
2008,06,29,14,15,29.70
2008,06,29,14,16,29.80
2008,06,29,14,17,29.80
2008,06,29,14,18,29.70
2008,06,29,14,19,29.70
2008,06,29,14,20,29.70
2008,06,29,14,21,29.80
2008,06,29,14,22,29.80
2008,06,29,14,23,29.90
2008,06,29,14,24,29.80
2008,06,29,14,25,29.80
2008,06,29,14,26,29.80
2008,06,29,14,27,29.80
2008,06,29,14,28,29.70
2008,06,29,14,29,29.70
2008,06,29,14,30,29.70
2008,06,29,14,31,29.80
2008,06,29,14,32,29.70
2008,06,29,14,33,29.50
2008,06,29,14,34,29.40
2008,06,29,14,35,29.30
2008,06,29,14,36,29.20
2008,06,29,14,37,29.20
2008,06,29,14,38,29.20
2008,06,29,14,39,29.40
2008,06,29,14,40,29.40
2008,06,29,14,41,29.50
2008,06,29,14,42,29.60
2008,06,29,14,43,29.60
2008,06,29,14,44,29.60
2008,06,29,14,45,29.50
2008,06,29,14,46,29.50
2008,06,29,14,47,29.40
2008,06,29,14,48,29.30
2008,06,29,14,49,29.30
2008,06,29,14,50,29.20
2008,06,29,14,51,29.10
2008,06,29,14,52,28.90
2008,06,29,14,53,29.00
2008,06,29,14,54,29.10
2008,06,29,14,55,29.20
2008,06,29,14,56,29.40
2008,06,29,14,57,29.60
2008,06,29,14,58,29.80
2008,06,29,14,59,30.00
2008,06,29,15,00,30.10
2008,06,29,15,01,30.10
2008,06,29,15,02,30.20
2008,06,29,15,03,30.30
2008,06,29,15,04,30.50
2008,06,29,15,05,30.60
2008,06,29,15,06,30.60
2008,06,29,15,07,30.50
2008,06,29,15,08,30.50
2008,06,29,15,09,30.30
2008,06,29,15,10,30.10
2008,06,29,15,11,30.10
2008,06,29,15,12,30.10
2008,06,29,15,13,30.20
2008,06,29,15,14,30.40
2008,06,29,15,15,30.50
2008,06,29,15,16,30.60
2008,06,29,15,17,30.70
2008,06,29,15,18,30.60
2008,06,29,15,19,30.40
2008,06,29,15,20,30.20
2008,06,29,15,21,30.10
2008,06,29,15,22,29.90
2008,06,29,15,23,29.70
2008,06,29,15,24,29.60
2008,06,29,15,25,29.50
2008,06,29,15,26,29.50
2008,06,29,15,27,29.40
2008,06,29,15,28,29.30
2008,06,29,15,29,29.40
2008,06,29,15,30,29.40
2008,06,29,15,31,29.40
2008,06,29,15,32,29.40
2008,06,29,15,33,29.50
2008,06,29,15,34,29.50
2008,06,29,15,35,29.50
2008,06,29,15,36,29.50
2008,06,29,15,37,29.40
2008,06,29,15,38,29.40
2008,06,29,15,39,29.50
2008,06,29,15,40,29.50
2008,06,29,15,41,29.60
2008,06,29,15,42,29.60
2008,06,29,15,43,29.70
2008,06,29,15,44,29.70
2008,06,29,15,45,29.70
2008,06,29,15,46,29.50
2008,06,29,15,47,29.60
2008,06,29,15,48,29.70
2008,06,29,15,49,29.70
2008,06,29,15,50,29.70
2008,06,29,15,51,29.70
2008,06,29,15,52,29.70
2008,06,29,15,53,29.80
2008,06,29,15,54,29.90
2008,06,29,15,55,29.90
2008,06,29,15,56,29.80
2008,06,29,15,57,29.80
2008,06,29,15,58,29.90
2008,06,29,15,59,29.90
2008,06,29,16,00,29.90
2008,06,29,16,01,29.80
2008,06,29,16,02,29.80
2008,06,29,16,03,29.80
2008,06,29,16,04,29.80
2008,06,29,16,05,30.00
2008,06,29,16,06,30.10
2008,06,29,16,07,29.90
2008,06,29,16,08,29.80
2008,06,29,16,09,29.80
2008,06,29,16,10,29.80
2008,06,29,16,11,29.80
2008,06,29,16,12,29.80
2008,06,29,16,13,29.90
2008,06,29,16,14,30.00
2008,06,29,16,15,30.00
2008,06,29,16,16,29.90
2008,06,29,16,17,29.80
2008,06,29,16,18,29.80
2008,06,29,16,19,29.90
2008,06,29,16,20,29.90
2008,06,29,16,21,29.80
2008,06,29,16,22,29.80
2008,06,29,16,23,29.80
2008,06,29,16,24,29.80
2008,06,29,16,25,29.80
2008,06,29,16,26,29.70
2008,06,29,16,27,29.70
2008,06,29,16,28,29.70
2008,06,29,16,29,29.70
2008,06,29,16,30,29.60
2008,06,29,16,31,29.50
2008,06,29,16,32,29.40
2008,06,29,16,33,29.40
2008,06,29,16,34,29.40
2008,06,29,16,35,29.50
2008,06,29,16,36,29.50
2008,06,29,16,37,29.50
2008,06,29,16,38,29.40
2008,06,29,16,39,29.30
2008,06,29,16,40,29.10
2008,06,29,16,41,29.10
2008,06,29,16,42,29.10
2008,06,29,16,43,29.20
2008,06,29,16,44,29.30
2008,06,29,16,45,29.50
2008,06,29,16,46,29.50
2008,06,29,16,47,29.50
2008,06,29,16,48,29.50
2008,06,29,16,49,29.60
2008,06,29,16,50,29.80
2008,06,29,16,51,29.80
2008,06,29,16,52,29.80
2008,06,29,16,53,29.80
2008,06,29,16,54,29.80
2008,06,29,16,55,29.80
2008,06,29,16,56,29.80
2008,06,29,16,57,29.80
2008,06,29,16,58,29.70
2008,06,29,16,59,29.50
2008,06,29,17,00,29.40
2008,06,29,17,01,29.20
2008,06,29,17,02,29.20
2008,06,29,17,03,29.20
2008,06,29,17,04,29.20
2008,06,29,17,05,29.20
2008,06,29,17,06,29.10
2008,06,29,17,07,29.10
2008,06,29,17,08,29.10
2008,06,29,17,09,29.20
2008,06,29,17,10,29.20
2008,06,29,17,11,29.20
2008,06,29,17,12,29.20
2008,06,29,17,13,29.40
2008,06,29,17,14,29.50
2008,06,29,17,15,29.60
2008,06,29,17,16,29.70
2008,06,29,17,17,29.70
2008,06,29,17,18,29.70
2008,06,29,17,19,29.60